Time,TemperatureF,DewpointF,PressureIn,WindDirection,WindDirectionDegrees,WindSpeedMPH,WindSpeedGustMPH,Humidity,HourlyPrecipIn,Conditions,Clouds,dailyrainin,SolarRadiationWatts/m^2,SoftwareType,DateUTC
2013-10-02 08:43:00,80.7,-99.9,29.78,ENE,70,0.0,0.0,0,0.00,,,0.01,591,Wunderground v.1.15,2013-10-02 01:43:00,
2013-10-02 08:53:00,81.3,-99.9,29.78,NE,50,1.0,1.0,0,0.00,,,0.01,359,Wunderground v.1.15,2013-10-02 01:53:00,
2013-10-02 08:58:00,81.9,-99.9,29.78,NNE,31,1.0,2.0,0,0.00,,,0.01,751,Wunderground v.1.15,2013-10-02 01:58:00,
2013-10-02 09:03:00,82.6,-99.9,29.78,ENE,72,1.0,1.0,0,0.00,,,0.01,318,Wunderground v.1.15,2013-10-02 02:03:00,
2013-10-02 09:08:00,82.7,-99.9,29.78,NE,35,1.0,1.0,0,0.00,,,0.01,260,Wunderground v.1.15,2013-10-02 02:08:00,
2013-10-02 09:18:00,82.9,-99.9,29.78,ENE,70,1.0,2.0,0,0.00,,,0.01,209,Wunderground v.1.15,2013-10-02 02:18:00,
2013-10-02 09:23:00,82.9,-99.9,29.78,ENE,70,1.0,1.0,0,0.00,,,0.01,216,Wunderground v.1.15,2013-10-02 02:23:00,
2013-10-02 09:28:00,83.0,-99.9,29.78,ENE,57,1.0,1.0,0,0.00,,,0.01,186,Wunderground v.1.15,2013-10-02 02:28:00,
2013-10-02 09:33:00,83.8,-99.9,29.78,ENE,67,1.0,1.0,0,0.00,,,0.01,842,Wunderground v.1.15,2013-10-02 02:33:00,
2013-10-02 09:43:00,83.9,-99.9,29.78,South,191,2.0,7.0,0,0.00,,,0.01,659,Wunderground v.1.15,2013-10-02 02:43:00,
2013-10-02 09:48:00,84.8,-99.9,29.78,SE,139,4.0,7.0,0,0.00,,,0.01,390,Wunderground v.1.15,2013-10-02 02:48:00,
2013-10-02 09:53:00,85.8,-99.9,29.78,SSE,166,4.0,5.0,0,0.00,,,0.01,868,Wunderground v.1.15,2013-10-02 02:53:00,
2013-10-02 10:03:00,86.1,-99.9,29.78,SE,139,5.0,5.0,0,0.00,,,0.01,919,Wunderground v.1.15,2013-10-02 03:03:00,
2013-10-02 10:08:00,86.3,-99.9,29.78,SSW,198,4.0,6.0,0,0.00,,,0.01,858,Wunderground v.1.15,2013-10-02 03:08:00,
2013-10-02 10:13:00,85.7,-99.9,29.78,South,175,4.0,4.0,0,0.00,,,0.01,656,Wunderground v.1.15,2013-10-02 03:13:00,
2013-10-02 10:18:00,86.0,-99.9,29.78,WSW,243,4.0,5.0,0,0.00,,,0.01,679,Wunderground v.1.15,2013-10-02 03:18:00,
2013-10-02 10:23:00,86.1,-99.9,29.78,SSE,159,3.0,6.0,0,0.00,,,0.01,881,Wunderground v.1.15,2013-10-02 03:23:00,
2013-10-02 10:28:00,86.0,-99.9,29.78,SSW,201,4.0,6.0,0,0.00,,,0.01,898,Wunderground v.1.15,2013-10-02 03:28:00,
2013-10-02 10:38:00,86.0,-99.9,29.78,South,179,7.0,13.0,0,0.00,,,0.01,918,Wunderground v.1.15,2013-10-02 03:38:00,
2013-10-02 10:43:00,86.2,-99.9,29.78,South,174,7.0,8.0,0,0.00,,,0.01,896,Wunderground v.1.15,2013-10-02 03:43:00,
2013-10-02 10:48:00,86.7,-99.9,29.77,South,188,6.0,8.0,0,0.00,,,0.01,935,Wunderground v.1.15,2013-10-02 03:48:00,
2013-10-02 10:58:00,86.8,-99.9,29.77,South,169,6.0,6.0,0,0.00,,,0.01,956,Wunderground v.1.15,2013-10-02 03:58:00,
2013-10-02 11:03:00,87.6,-99.9,29.77,SSE,158,4.0,5.0,0,0.00,,,0.01,962,Wunderground v.1.15,2013-10-02 04:03:00,
2013-10-02 11:08:00,87.5,-99.9,29.77,ESE,117,3.0,5.0,0,0.00,,,0.01,947,Wunderground v.1.15,2013-10-02 04:08:00,
2013-10-02 11:13:00,87.5,-99.9,29.77,SSE,149,4.0,5.0,0,0.00,,,0.01,979,Wunderground v.1.15,2013-10-02 04:13:00,
2013-10-02 11:18:00,86.9,-99.9,29.76,SSE,168,6.0,6.0,0,0.00,,,0.01,981,Wunderground v.1.15,2013-10-02 04:18:00,
2013-10-02 11:23:00,87.4,-99.9,29.76,SSW,192,7.0,10.0,0,0.00,,,0.01,990,Wunderground v.1.15,2013-10-02 04:23:00,
2013-10-02 11:28:00,87.1,-99.9,29.76,SSE,167,6.0,10.0,0,0.00,,,0.01,998,Wunderground v.1.15,2013-10-02 04:28:00,
2013-10-02 11:38:00,87.4,-99.9,29.75,South,179,6.0,9.0,0,0.00,,,0.01,1004,Wunderground v.1.15,2013-10-02 04:38:00,
2013-10-02 11:43:00,87.6,-99.9,29.75,ESE,120,6.0,7.0,0,0.00,,,0.01,1011,Wunderground v.1.15,2013-10-02 04:43:00,
2013-10-02 11:53:00,88.1,-99.9,29.75,SW,229,7.0,7.0,0,0.00,,,0.01,974,Wunderground v.1.15,2013-10-02 04:53:00,
2013-10-02 11:58:00,87.7,-99.9,29.75,SSE,163,6.0,9.0,0,0.00,,,0.01,786,Wunderground v.1.15,2013-10-02 04:58:00,
2013-10-02 12:03:00,87.5,-99.9,29.75,South,183,5.0,10.0,0,0.00,,,0.01,849,Wunderground v.1.15,2013-10-02 05:03:00,
2013-10-02 12:13:00,87.8,-99.9,29.75,South,169,6.0,9.0,0,0.00,,,0.01,954,Wunderground v.1.15,2013-10-02 05:13:00,
2013-10-02 12:18:00,87.4,-99.9,29.74,South,169,7.0,9.0,0,0.00,,,0.01,837,Wunderground v.1.15,2013-10-02 05:18:00,
2013-10-02 12:28:00,88.3,-99.9,29.74,SSE,165,6.0,7.0,0,0.00,,,0.01,1083,Wunderground v.1.15,2013-10-02 05:28:00,
2013-10-02 12:33:00,88.3,-99.9,29.74,SSE,155,6.0,6.0,0,0.00,,,0.01,1062,Wunderground v.1.15,2013-10-02 05:33:00,
2013-10-02 12:38:00,88.3,-99.9,29.74,South,176,6.0,9.0,0,0.00,,,0.01,1078,Wunderground v.1.15,2013-10-02 05:38:00,
2013-10-02 12:43:00,88.5,-99.9,29.74,South,187,7.0,7.0,0,0.00,,,0.01,1072,Wunderground v.1.15,2013-10-02 05:43:00,
2013-10-02 12:53:00,89.4,9.6,29.73,SE,135,4.0,4.0,5,0.00,,,0.01,1129,Wunderground v.1.15,2013-10-02 05:53:00,
2013-10-02 12:58:00,88.4,-99.9,29.73,SSE,160,5.0,5.0,0,0.00,,,0.01,417,Wunderground v.1.15,2013-10-02 05:58:00,
2013-10-02 13:03:00,87.8,-99.9,29.72,South,169,5.0,7.0,0,0.00,,,0.01,287,Wunderground v.1.15,2013-10-02 06:03:00,
2013-10-02 13:13:00,86.6,-99.9,29.72,SSE,149,5.0,5.0,0,0.00,,,0.01,316,Wunderground v.1.15,2013-10-02 06:13:00,
2013-10-02 13:18:00,86.7,-99.9,29.72,SE,143,4.0,5.0,0,0.00,,,0.01,404,Wunderground v.1.15,2013-10-02 06:18:00,
2013-10-02 13:28:00,87.4,-99.9,29.72,SE,144,2.0,5.0,0,0.00,,,0.01,357,Wunderground v.1.15,2013-10-02 06:28:00,
2013-10-02 13:33:00,87.2,-99.9,29.72,SE,146,3.0,6.0,0,0.00,,,0.01,631,Wunderground v.1.15,2013-10-02 06:33:00,
2013-10-02 13:38:00,87.6,-99.9,29.72,SSE,157,4.0,6.0,0,0.00,,,0.01,782,Wunderground v.1.15,2013-10-02 06:38:00,
2013-10-02 13:43:00,88.1,-99.9,29.72,South,169,4.0,4.0,0,0.00,,,0.01,904,Wunderground v.1.15,2013-10-02 06:43:00,
2013-10-02 13:53:00,88.6,-99.9,29.71,SSE,162,3.0,3.0,0,0.00,,,0.01,1000,Wunderground v.1.15,2013-10-02 06:53:00,
2013-10-02 13:58:00,88.8,9.1,29.71,SSE,154,4.0,6.0,5,0.00,,,0.01,264,Wunderground v.1.15,2013-10-02 06:58:00,
2013-10-02 14:08:00,88.8,-99.9,29.70,SSE,156,5.0,9.0,0,0.00,,,0.01,322,Wunderground v.1.15,2013-10-02 07:08:00,
2013-10-02 14:13:00,87.9,-24.4,29.70,ESE,122,5.0,5.0,1,0.00,,,0.01,199,Wunderground v.1.15,2013-10-02 07:13:00,
2013-10-02 14:23:00,88.8,4.2,29.69,SE,143,4.0,4.0,4,0.00,,,0.01,824,Wunderground v.1.15,2013-10-02 07:23:00,
2013-10-02 14:28:00,88.3,-99.9,29.69,SE,141,6.0,6.0,0,0.00,,,0.01,445,Wunderground v.1.15,2013-10-02 07:28:00,
2013-10-02 14:33:00,88.4,-99.9,29.69,SSE,163,7.0,7.0,0,0.00,,,0.01,877,Wunderground v.1.15,2013-10-02 07:33:00,
2013-10-02 14:43:00,88.4,-99.9,29.69,West,269,7.0,7.0,0,0.00,,,0.01,803,Wunderground v.1.15,2013-10-02 07:43:00,
2013-10-02 14:48:00,88.5,-99.9,29.68,SSE,152,6.0,7.0,0,0.00,,,0.01,759,Wunderground v.1.15,2013-10-02 07:48:00,
2013-10-02 14:58:00,89.3,13.6,29.68,ESE,113,3.0,5.0,6,0.00,,,0.01,789,Wunderground v.1.15,2013-10-02 07:58:00,
2013-10-02 15:03:00,89.2,23.0,29.68,SSE,151,3.0,3.0,9,0.00,,,0.01,786,Wunderground v.1.15,2013-10-02 08:03:00,
2013-10-02 15:13:00,89.1,17.0,29.68,SSW,212,4.0,4.0,7,0.00,,,0.01,677,Wunderground v.1.15,2013-10-02 08:13:00,
2013-10-02 15:18:00,88.7,4.1,29.67,SSE,150,4.0,4.0,4,0.00,,,0.01,329,Wunderground v.1.15,2013-10-02 08:18:00,
2013-10-02 15:23:00,88.3,-99.9,29.67,South,185,4.0,4.0,0,0.00,,,0.01,163,Wunderground v.1.15,2013-10-02 08:23:00,
2013-10-02 15:33:00,89.1,-99.9,29.67,South,173,2.0,2.0,0,0.00,,,0.01,659,Wunderground v.1.15,2013-10-02 08:33:00,
2013-10-02 15:38:00,88.5,-99.9,29.67,SSE,165,2.0,3.0,0,0.00,,,0.01,176,Wunderground v.1.15,2013-10-02 08:38:00,
2013-10-02 15:48:00,87.6,-99.9,29.67,SE,136,3.0,5.0,0,0.00,,,0.01,622,Wunderground v.1.15,2013-10-02 08:48:00,
2013-10-02 15:53:00,88.0,-99.9,29.67,NE,51,3.0,3.0,0,0.00,,,0.01,195,Wunderground v.1.15,2013-10-02 08:53:00,
2013-10-02 16:03:00,88.3,16.4,29.67,SE,124,1.0,3.0,7,0.00,,,0.01,148,Wunderground v.1.15,2013-10-02 09:03:00,
2013-10-02 16:08:00,88.1,16.3,29.67,SSE,165,2.0,3.0,7,0.00,,,0.01,492,Wunderground v.1.15,2013-10-02 09:08:00,
2013-10-02 16:18:00,88.7,48.4,29.67,NW,321,1.0,2.0,25,0.00,,,0.01,410,Wunderground v.1.15,2013-10-02 09:18:00,
2013-10-02 16:23:00,88.5,54.0,29.67,East,86,1.0,3.0,31,0.00,,,0.01,404,Wunderground v.1.15,2013-10-02 09:23:00,
2013-10-02 16:28:00,88.3,48.0,29.67,North,0,2.0,3.0,25,0.00,,,0.01,330,Wunderground v.1.15,2013-10-02 09:28:00,
2013-10-02 16:38:00,87.6,3.4,29.67,South,184,1.0,2.0,4,0.00,,,0.01,123,Wunderground v.1.15,2013-10-02 09:38:00,
2013-10-02 16:43:00,87.6,34.2,29.67,SSE,160,2.0,2.0,15,0.00,,,0.01,123,Wunderground v.1.15,2013-10-02 09:43:00,
2013-10-02 16:48:00,87.4,26.4,29.67,SW,214,1.0,2.0,11,0.00,,,0.01,116,Wunderground v.1.15,2013-10-02 09:48:00,
2013-10-02 16:58:00,87.3,-99.9,29.67,WSW,252,1.0,1.0,0,0.00,,,0.01,86,Wunderground v.1.15,2013-10-02 09:58:00,
2013-10-02 17:03:00,87.0,-99.9,29.67,ENE,78,1.0,1.0,0,0.00,,,0.01,93,Wunderground v.1.15,2013-10-02 10:03:00,
2013-10-02 17:13:00,86.7,-99.9,29.67,SE,145,1.0,2.0,0,0.00,,,0.01,105,Wunderground v.1.15,2013-10-02 10:13:00,
2013-10-02 17:18:00,86.7,-99.9,29.67,NE,56,1.0,2.0,0,0.00,,,0.01,109,Wunderground v.1.15,2013-10-02 10:18:00,
2013-10-02 17:28:00,86.2,-99.9,29.67,SSE,154,1.0,3.0,0,0.00,,,0.01,93,Wunderground v.1.15,2013-10-02 10:28:00,
2013-10-02 17:33:00,86.3,-99.9,29.67,SE,127,1.0,1.0,0,0.00,,,0.01,77,Wunderground v.1.15,2013-10-02 10:33:00,
2013-10-02 17:38:00,86.0,-99.9,29.67,SE,127,1.0,1.0,0,0.00,,,0.01,62,Wunderground v.1.15,2013-10-02 10:38:00,
2013-10-02 17:43:00,85.7,-99.9,29.67,NE,53,0.0,0.0,0,0.00,,,0.01,46,Wunderground v.1.15,2013-10-02 10:43:00,
2013-10-02 17:53:00,85.1,-99.9,29.67,NNE,16,0.0,0.0,0,0.00,,,0.01,25,Wunderground v.1.15,2013-10-02 10:53:00,